[Iaude] MPEC G110: 2024 GR1 [a=2.01,e=0.50,i=5.9,H=24.1]
    mpec at cfa.harvard.edu 
    mpec at cfa.harvard.edu
       
    Tue Apr  9 07:49:58 EDT 2024
    
    
  
M.P.E.C. 2024-G110                                Issued 2024 April 9, 11:48 UT
     The Minor Planet Electronic Circulars contain information on unusual
         minor planets, routine data on comets and natural satellites,
         and occasional editorial announcements.  They are published
    on behalf of Division F of the International Astronomical Union by the
          Minor Planet Center, Smithsonian Astrophysical Observatory,
                          Cambridge, MA 02138, U.S.A.
			  
             Prepared using the Tamkin Foundation Computer Network
                              MPC at CFA.HARVARD.EDU
            URL https://www.minorplanetcenter.net/    ISSN 1523-6714
                                    2024 GR1                                    
Observations:
     K24G01R* C2024 04 07.32138208 56 02.769+19 32 40.85         21.22wXEG110F51
     K24G01R  C2024 04 07.34790008 56 04.676+19 34 39.89         21.36wXEG110F51
     K24G01R  C2024 04 07.36107508 56 05.638+19 35 38.61         21.05wXEG110F51
     K24G01R  C2024 04 07.44340208 56 12.409+19 41 44.60         20.60GVEG110F51
     K24G01R  C2024 04 07.44405208 56 12.479+19 41 47.17         20.73GVEG110F51
     K24G01R KC2024 04 08.15315808 57 37.397+20 37 20.60               VEG110I52
     K24G01R KC2024 04 08.15444508 57 37.501+20 37 27.08               VEG110I52
     K24G01R KC2024 04 08.15701008 57 37.753+20 37 40.98         21.56GVEG110I52
     K24G01R 1C2024 04 08.21300208 57 42.466+20 42 07.85         20.96GVEG110G96
     K24G01R 1C2024 04 08.21821808 57 42.919+20 42 32.62         21.54GVEG110G96
     K24G01R 1C2024 04 08.22345608 57 43.376+20 42 57.53         20.93GVEG110G96
     K24G01R 1C2024 04 08.22866608 57 43.859+20 43 22.22         20.74GVEG110G96
     K24G01R 3C2024 04 08.42423708 58 05.086+20 59 25.11               VEG110T14
     K24G01R 3C2024 04 08.42521608 58 05.180+20 59 29.72               VEG110T14
     K24G01R 3C2024 04 08.43324208 58 06.005+21 00 07.55         20.98GVEG110T14
     K24G01R 3C2024 04 08.43422108 58 06.108+21 00 12.20         20.93GVEG110T14
     K24G01R 3C2024 04 08.43553108 58 06.242+21 00 18.37         20.89GVEG110T14
     K24G01R 3C2024 04 08.43651108 58 06.345+21 00 23.02         20.92GVEG110T14
     K24G01R 3C2024 04 08.43749008 58 06.445+21 00 27.60         20.92GVEG110T14
     K24G01R 3C2024 04 08.43846708 58 06.550+21 00 32.24         20.94GVEG110T14
     K24G01R KC2024 04 09.09270808 59 35.30 +21 55 02.3          21.2 GVEG110H21
     K24G01R KC2024 04 09.09868608 59 35.87 +21 55 32.7          21.1 GVEG110H21
Observer details:
F51 Pan-STARRS 1, Haleakala.  Observers J. Herman, T. Lowe, P. Minguez, A.
    Schultz, I. Smith.  Measurers K. Chambers, T. de Boer, J. Fairlamb, H.
    Gao, M. Huber, C.-C. Lin, E. Magnier, Y. Ramanjooloo, R. Wainscoat, R.
    Weryk.  1.8-m Ritchey-Chretien + CCD.
G96 Mt. Lemmon Survey.  Observer H. Groeller.  Measurers T. Beuden, V. F.
    Carvajal, D. Fay, J. B. Fazekas, D. C. Fuls, A. R. Gibbs, A. D. Grauer, H.
    Groeller, J. K. Hogan, R. A. Kowalski, S. M. Larson, G. J. Leonard, D.
    Rankin, R. L. Seaman, F. C. Shelly, K. W. Wierzchos.  1.5-m reflector +
    10K CCD.
H21 Astronomical Research Observatory, Westfield.  Observer R. Holmes.
    Measurers T. Linder, R. Holmes, L. Horn.  0.81-m f/4.0 astrograph + CCD.
I52 Steward Observatory, Mt. Lemmon Station.  Observer J. K. Hogan.  Measurers
    T. Beuden, V. F. Carvajal, D. Fay, J. B. Fazekas, D. C. Fuls, A. R. Gibbs,
    A. D. Grauer, H. Groeller, J. K. Hogan, R. A. Kowalski, S. M. Larson, G.
    J. Leonard, D. Rankin, R. L. Seaman, F. C. Shelly, K. W. Wierzchos.  1.0-m
    prime focus + CCD.
T14 Canada-France-Hawaii Telescope, Maunakea.  Observers R. Wainscoat, L.
    Wells, T. Burdullis.  Measurers R. Weryk, R. Wainscoat.  3.6-m f/4.1
    reflector + CCD.
Orbital elements:
2024 GR1                                                 Earth MOID = 0.0301 AU
Epoch 2024 Mar. 31.0 TT = JDT 2460400.5                 Veres                   
M 350.64479              (2000.0)            P               Q                  
n   0.34519726     Peri.   24.81216     -0.81191115     +0.58345378             
a   2.0126016      Node   190.94627     -0.55132120     -0.77734474             
e   0.4956272      Incl.    5.90755     -0.19195106     -0.23519532             
P   2.86           H   24.11          G   0.15           U   8                  
Residuals in seconds of arc
240407 F51  0.1+  0.0     240408 G96  0.0   0.0     240408 T14  0.0   0.0
240407 F51  0.3+  0.1+    240408 G96  0.1-  0.0     240408 T14  0.0   0.0
240407 F51  0.1+  0.0     240408 G96  0.1-  0.1+    240408 T14  0.0   0.0
240407 F51  0.2-  0.1+    240408 G96  0.2+  0.1+    240408 T14  0.0   0.0
240407 F51  0.0   0.2-    240408 T14  0.1+  0.1+    240409 H21  0.2+  0.1+
240408 I52  0.5-  1.6-    240408 T14  0.0   0.1+    240409 H21  0.1-  0.1-
240408 I52  0.5-  1.3-    240408 T14  0.0   0.0
240408 I52  0.1+  0.3+    240408 T14  0.0   0.0
Ephemeris:
2024 GR1                 a,e,i = 2.01, 0.50, 6                   q = 1.0151
Date    TT    R. A. (2000) Decl.     Delta      r    Elong.  Phase     V
2024 03 10    08 54 51.1 +01 15 27   0.2019  1.1612   143.2    30.8    22.3
...
2024 03 25    08 46 36.7 +07 51 58   0.1425  1.0885   126.8    47.2    21.8
...
2024 04 02    08 49 25.8 +13 48 57   0.1134  1.0584   118.5    56.1    21.5
...
2024 04 08    08 57 20.1 +20 25 24   0.09279 1.0405   112.6    62.6    21.3
2024 04 09    08 59 23.7 +21 47 34   0.08948 1.0380   111.7    63.7    21.2
2024 04 10    09 01 44.2 +23 15 31   0.08622 1.0356   110.8    64.8    21.2
...
2024 04 16    09 24 34.6 +34 37 10   0.06815 1.0238   105.5    70.9    20.8
...
2024 04 24    11 01 04.7 +57 53 23   0.05211 1.0158    99.7    77.4    20.4
...
2024 05 09    18 23 30.0 +48 00 17   0.06965 1.0251   101.0    75.2    21.0
M. P. C. Staff               (C) Copyright 2024 MPC           M.P.E.C. 2024-G110
    
    
More information about the Iaude
mailing list